Rbgn^[z[y[W
メイン
   新天体発見情報
     Comet P/2021 J3 (ATLAS)
投稿するにはまず登録を

スレッド表示 | 古いものから 前のトピック | 次のトピック | 下へ
投稿者 スレッド
佐藤裕久
投稿日時: 2021-6-17 17:13
モデレータ
登録日: 2005-6-12
居住地: 日本
投稿: 2590
オンライン
Comet P/2021 J3 (ATLAS)

5月13日、ハワイ Mauna Loaにある小惑星地球衝突最終警報システム Asteroid Terrestrial-
impact Last Alert System (ATLAS)調査プログラムのコースに0.5-m f/2 Schmidt反射望遠鏡
で得たCCD画像から彗星が発見された。
R. Weryk (西オンタリオ大学,物理および天文学科)は、5月14.6日UT、HaleakalaにあるPan-
STARRS1 1.8-m Ritchey-Chretien反射望遠鏡で得た4枚の45秒w-バンドサーベイ画像から、1".2
のシーイングで集光した1".8(半値全幅:FWHM)のコマが見え、おそらく南に向かって少し伸びて
いると記述した。
小惑星センターのPCCP webpageに公表後、L. BuzziとL. Demetz (測定はA. AlettiとBuzz, 
5月12.1日UT、シーイング良し, 60秒露出17枚のスタック, Skygems Telescope Network 0.51-m
 f/6.7 アストログラフ, ナミビア, 中程度のに集光した5"のコマが見え、北西に向かって伸び
ているかもしれない。頭部は2".4のシーイングで3".1 (FWHM)であった)らCCD位置観測者によっ
て彗星状と観測された。

彗星機能の報告は次の通り:

OC   Date        Reporter           Coma    Tail    PA          Exposures
F51  2021-05-14  R. Weryk           0".7                          4x45s
L81  2021-05-26  A. Aletti          5"
G40  2021-06-02  B. Lutkenhoner     8"                           40x50s

発見位置は次のとおり、

     2021 UT             R.A. (2000) Decl.       Mag.
     May  13.54531   20 56 18.20   -20 08 22.8   18.6
          13.54946   20 56 18.28   -20 08 22.6   18.7
          13.55499   20 56 18.32   -20 08 23.3   18.9
          13.56191   20 56 18.43   -20 08 24.5   18.8

MPCの楕円軌道要素、位置推算表は次のとおり、

Orbital elements:
    P/2021 J3 (ATLAS)                                                           
Epoch 2019 June 6.0 TT = JDT 2458640.5                                          
T 2019 June 15.40667 TT                                 Rudenko                 
q   4.8851289            (2000.0)            P               Q                  
n   0.03909733     Peri.  123.85254     -0.54600091     +0.80424238             
a   8.5974825      Node   111.33059     -0.82752300     -0.47401141             
e   0.4317954      Incl.   14.59259     -0.13072369     -0.35847925             
P  25.2                                                                         
From 45 observations 2021 May 13-June 2, mean residual 0".3.                    
                                                                                
    P/2021 J3 (ATLAS)                                                           
Epoch 2045 Aug. 8.0 TT = JDT 2468200.5                                          
T 2045 Aug. 18.75410 TT                                 Rudenko                 
q   4.8927199            (2000.0)            P               Q                  
n   0.03774460     Peri.  125.85370     -0.53027734     +0.81457553             
a   8.8016912      Node   110.46487     -0.83605261     -0.45635914             
e   0.4441159      Incl.   14.53308     -0.14079057     -0.35805452             
P  26.1                                                                         
From 45 observations 2021 May 13-June 2, mean residual 0".3.                    
                                                                                
    P/2021 J3 (ATLAS)                                                           
Epoch 2020 Dec. 17.0 TT = JDT 2459200.5                                         
T 2019 June 27.35811 TT                                 Rudenko                 
q   4.9005391            (2000.0)            P               Q                  
n   0.03757525     Peri.  125.14056     -0.52882768     +0.81554032             
a   8.8281183      Node   111.25486     -0.83738707     -0.45623836             
e   0.4448943      Incl.   14.60629     -0.13829020     -0.35600637             
P  26.2                                                                         
From 45 observations 2021 May 13-June 2, mean residual 0".3.                    
                                                                                
Ephemeris:
Date    TT    R. A. (2000) Decl.     Delta      r    Elong.  Phase   m1
2021 05 04    20 54 04.8 -20 01 46   5.8013  5.9419    93.1     9.8  18.6
...
2021 05 19    20 57 07.8 -20 14 09   5.6072  5.9809   106.9     9.3  18.5
...
2021 05 27    20 57 45.3 -20 25 16   5.5100  6.0019   114.5     8.8  18.5
...
2021 06 02    20 57 45.7 -20 35 38   5.4417  6.0177   120.3     8.4  18.5
2021 06 03    20 57 43.5 -20 37 32   5.4308  6.0203   121.3     8.3  18.5
2021 06 04    20 57 40.6 -20 39 28   5.4200  6.0229   122.3     8.2  18.5
...
2021 06 10    20 57 09.6 -20 52 01   5.3585  6.0388   128.2     7.6  18.5
...
2021 06 18    20 55 53.2 -21 11 01   5.2864  6.0600   136.1     6.7  18.4
...
2021 07 03    20 51 53.6 -21 52 03   5.1880  6.0999   151.4     4.6  18.4

(MPEC 2021-L26、CBET 4974)

スレッド表示 | 古いものから 前のトピック | 次のトピック | トップ

投稿するにはまず登録を
 
© 1999 Tsutomu Seki.